Weather History for Concordia, KS

Change the Weather History Date:

Thursday, June 27, 2013

  Actual Average Record
Temperature  
Mean Temperature 81 °F 77 °F  
Max Temperature 93 °F 89 °F 107 °F (2012)
Min Temperature 68 °F 65 °F 47 °F (1968)
Degree Days  
Heating Degree Days 0 0  
Month to date heating degree days 15 11  
Since 1 June heating degree days 15 11  
Since 1 July heating degree days 5514 5406  
Cooling Degree Days 16 12  
Month to date cooling degree days 268 229  
Year to date cooling degree days 371 318  
Since 1 June cooling degree days 268 229  
Growing Degree Days 30 (Base 50)    
Moisture  
Dew Point 69 °F    
Average Humidity 71    
Maximum Humidity 90    
Minimum Humidity 52    
Precipitation  
Precipitation T in 0.14 in 3.45 in (1949)
Month to date precipitation 1.28 3.64  
Year to date precipitation 12.67 13.63  
Snow  
Snow 0.00 in 0.00 in T in (1953)
Month to date snowfall 0.0 0.0  
Year to date snowfall 20.3 13.7  
Since 1 July snowfall 28.8 20.2  
Snow Depth 0.00 in    
Sea Level Pressure  
Sea Level Pressure 29.89 in    
Wind  
Wind Speed 8 mph (East)    
Max Wind Speed 18 mph    
Max Gust Speed 24 mph    
Visibility 10 miles    
Events Rain , Thunderstorm    
T = Trace of Precipitation, MM = Missing Value Source: NWS Daily Summary

Daily Weather History Graph

Daily Weather History Graph

Search for Another Location

Airport:

Trip Planner

Search our weather history database for the weather conditions in past years. The results will help you decide how hot, cold, wet, or windy it might be!

Date:

Astronomy

Jun. 27, 2013 Rise Set
Actual Time 6:05 AM CDT 9:02 PM CDT
Civil Twilight 5:32 AM CDT 9:34 PM CDT
Nautical Twilight 4:51 AM CDT 10:15 PM CDT
Astronomical Twilight 4:04 AM CDT 11:03 PM CDT
Moon No Moon Rise 11:06 AM CDT (6/27)
Length of Visible Light 16h 01m
Length of Day
14h 56m
Waning Gibbous, 76% of the Moon is Illuminated
Jun 27
Waning Gibbous
Jun 29
Last Quarter
Jul 8
New
Jul 15
First Quarter
Jul 22
Full

Hourly Weather History & Observations

Time (CDT) Temp. Heat Index Dew Point Humidity Pressure Visibility Wind Dir Wind Speed Gust Speed Precip Events Conditions
12:55 AM 73.9 °F - 66.0 °F 76% 29.84 in 10.0 mi Calm Calm - N/A   Clear
1:55 AM 72.0 °F - 66.0 °F 81% 29.84 in 10.0 mi East 3.5 mph - N/A   Clear
2:55 AM 72.0 °F - 66.0 °F 81% 29.85 in 10.0 mi Calm Calm - N/A   Clear
3:55 AM 71.1 °F - 66.0 °F 84% 29.85 in 10.0 mi East 3.5 mph - N/A   Clear
4:55 AM 71.1 °F - 66.0 °F 84% 29.86 in 10.0 mi East 5.8 mph - N/A   Clear
5:55 AM 69.1 °F - 66.0 °F 90% 29.86 in 10.0 mi ESE 3.5 mph - N/A   Clear
6:55 AM 70.0 °F - 66.9 °F 90% 29.86 in 10.0 mi SE 4.6 mph - N/A   Clear
7:55 AM 73.0 °F - 69.1 °F 87% 29.88 in 10.0 mi East 4.6 mph - N/A   Clear
8:55 AM 75.0 °F - 71.1 °F 87% 29.92 in 10.0 mi East 4.6 mph - 0.00 in Thunderstorm Clear
9:13 AM 75.2 °F - 71.6 °F 89% 29.95 in 10.0 mi SSE 9.2 mph - 0.00 in Rain Light Rain
9:55 AM 79.0 °F - 73.0 °F 82% 29.91 in 10.0 mi East 3.5 mph - 0.00 in   Clear
10:55 AM 84.0 °F 91.2 °F 73.9 °F 72% 29.89 in 10.0 mi SSE 10.4 mph - N/A   Clear
11:24 AM 84.2 °F 90.9 °F 73.4 °F 70% 29.96 in 10.0 mi ESE 5.8 mph - N/A Thunderstorm Clear
11:39 AM 82.4 °F 88.2 °F 73.4 °F 74% 29.92 in 8.0 mi SSE 11.5 mph - 0.00 in Rain Light Rain
11:55 AM 86.0 °F 95.1 °F 75.0 °F 70% 29.88 in 10.0 mi SSE 9.2 mph - 0.00 in   Scattered Clouds
12:55 PM 89.1 °F 97.0 °F 73.0 °F 59% 29.88 in 10.0 mi SE 11.5 mph - N/A   Clear
1:55 PM 93.0 °F 101.9 °F 73.0 °F 52% 29.84 in 10.0 mi SSE 16.1 mph - N/A   Clear
2:55 PM 90.0 °F 100.2 °F 75.0 °F 61% 29.87 in 10.0 mi East 17.3 mph 23.0 mph N/A   Clear
3:55 PM 90.0 °F 97.9 °F 73.0 °F 57% 29.85 in 10.0 mi ENE 13.8 mph 19.6 mph N/A   Clear
4:55 PM 84.0 °F 89.6 °F 72.0 °F 67% 29.86 in 10.0 mi ENE 12.7 mph 19.6 mph N/A   Partly Cloudy
5:55 PM 78.1 °F - 70.0 °F 76% 29.88 in 10.0 mi ENE 18.4 mph 24.2 mph N/A   Clear
6:55 PM 75.9 °F - 66.0 °F 71% 29.88 in 10.0 mi NNE 10.4 mph - N/A   Partly Cloudy
7:55 PM 75.9 °F - 64.0 °F 67% 29.91 in 10.0 mi ENE 4.6 mph - N/A   Overcast
8:55 PM 75.9 °F - 64.9 °F 69% 29.94 in 10.0 mi NE 6.9 mph - N/A   Mostly Cloudy
9:55 PM 75.0 °F - 66.0 °F 73% 29.97 in 10.0 mi NNE 6.9 mph - N/A   Scattered Clouds
10:55 PM 73.0 °F - 66.0 °F 79% 29.99 in 10.0 mi North 5.8 mph - N/A   Clear
11:55 PM 71.1 °F - 64.9 °F 81% 29.98 in 10.0 mi NNW 4.6 mph - N/A   Clear